,,,PA_Meas_PMT16A,,PR_Meas_QMR101_102,,RH_Meas_QMH101,,SR_Meas_QMS101,,TA_Meas_QMH101,,GenWind,,GenWind,
date,time,status,PA,status,PR,status,RH,status,SR,status,TA,status,DirAvg,status,SpdAvg,
2011-12-30, 00:00:04,VALID,1003.53,VALID,0,VALID,85.9012,VALID,0,VALID,26.0596,VALID,339,VALID,0.0121094,
2011-12-30, 00:01:04,VALID,1003.53,VALID,0,VALID,85.8402,VALID,0,VALID,26.0576,VALID,341,VALID,0.499219,
2011-12-30, 00:02:04,VALID,1003.5,VALID,0,VALID,85.7181,VALID,0,VALID,26.0966,VALID,346,VALID,0.789844,
2011-12-30, 00:03:04,VALID,1003.51,VALID,0,VALID,85.596,VALID,0,VALID,26.0771,VALID,342,VALID,0.449219,
2011-12-30, 00:04:04,VALID,1003.49,VALID,0,VALID,85.6266,VALID,0,VALID,26.118,VALID,345,VALID,0.535156,
2011-12-30, 00:05:04,VALID,1003.46,VALID,0,VALID,85.7791,VALID,0,VALID,26.0966,VALID,346,VALID,0.078125,
2011-12-30, 00:06:04,VALID,1003.44,VALID,0,VALID,85.7105,VALID,0,VALID,26.0966,VALID,348,VALID,0.582422,
2011-12-30, 00:07:04,VALID,1003.44,VALID,0,VALID,85.7181,VALID,0,VALID,26.0985,VALID,359,VALID,0.617188,
2011-12-30, 00:08:04,VALID,1003.39,VALID,0,VALID,85.6494,VALID,0,VALID,26.118,VALID,340,VALID,0.650391,
2011-12-30, 00:09:04,VALID,1003.39,VALID,0,VALID,85.5426,VALID,0,VALID,26.118,VALID,339,VALID,1.33398,
2011-12-30, 00:10:04,VALID,1003.39,VALID,0,VALID,85.5274,VALID,0,VALID,26.1355,VALID,341,VALID,0.815625,
2011-12-30, 00:11:04,VALID,1003.36,VALID,0,VALID,85.4511,VALID,0,VALID,26.1355,VALID,353,VALID,0.608594,
2011-12-30, 00:12:04,VALID,1003.35,VALID,0,VALID,85.535,VALID,0,VALID,26.1355,VALID,343,VALID,0.733984,
2011-12-30, 00:13:04,VALID,1003.36,VALID,0,VALID,85.3977,VALID,0,VALID,26.1375,VALID,347,VALID,1.26211,
2011-12-30, 00:14:04,VALID,1003.36,VALID,0,VALID,85.4969,VALID,0,VALID,26.157,VALID,358,VALID,0.398047,
2011-12-30, 00:15:04,VALID,1003.39,VALID,0,VALID,85.3748,VALID,0,VALID,26.1355,VALID,356,VALID,0.555469,
2011-12-30, 00:16:04,VALID,1003.39,VALID,0,VALID,85.5121,VALID,0,VALID,26.157,VALID,357,VALID,0.134375,
2011-12-30, 00:17:04,VALID,1003.36,VALID,0,VALID,85.4282,VALID,0,VALID,26.116,VALID,321,VALID,0.263281,
2011-12-30, 00:18:04,VALID,1003.37,VALID,0,VALID,85.4511,VALID,0,VALID,26.1375,VALID,6,VALID,0.167969,
2011-12-30, 00:19:04,VALID,1003.38,VALID,0,VALID,85.6418,VALID,0,VALID,26.116,VALID,8,VALID,0.218359,
2011-12-30, 00:20:04,VALID,1003.39,VALID,0,VALID,85.596,VALID,0,VALID,26.118,VALID,7,VALID,0.416797,
2011-12-30, 00:21:04,VALID,1003.4,VALID,0,VALID,85.7639,VALID,0,VALID,26.118,VALID,6,VALID,0.100391,
2011-12-30, 00:22:04,VALID,1003.39,VALID,0,VALID,85.7181,VALID,0,VALID,26.118,VALID,2,VALID,0.661328,
2011-12-30, 00:23:04,VALID,1003.35,VALID,0,VALID,85.7562,VALID,0,VALID,26.0985,VALID,350,VALID,0.0757812,
2011-12-30, 00:24:04,VALID,1003.33,VALID,0,VALID,85.802,VALID,0,VALID,26.0771,VALID,350,VALID,0.0269531,
2011-12-30, 00:25:04,VALID,1003.29,VALID,0,VALID,85.8783,VALID,0,VALID,26.0771,VALID,350,VALID,0.0785156,
2011-12-30, 00:26:04,VALID,1003.27,VALID,0,VALID,85.6876,VALID,0,VALID,26.0576,VALID,338,VALID,0.691016,
2011-12-30, 00:27:04,VALID,1003.25,VALID,0,VALID,85.7715,VALID,0,VALID,26.0576,VALID,336,VALID,0.361719,
2011-12-30, 00:28:04,VALID,1003.21,VALID,0,VALID,85.7562,VALID,0,VALID,26.0985,VALID,312,VALID,0.190625,
2011-12-30, 00:29:04,VALID,1003.18,VALID,0,VALID,85.7868,VALID,0,VALID,26.0576,VALID,312,VALID,0.124609,
2011-12-30, 00:30:04,VALID,1003.2,VALID,0,VALID,85.8478,VALID,0,VALID,26.0596,VALID,305,VALID,0.0378906,
2011-12-30, 00:31:04,VALID,1003.2,VALID,0,VALID,86.0385,VALID,0,VALID,26.0596,VALID,305,VALID,0.0140625,
2011-12-30, 00:32:04,VALID,1003.17,VALID,0,VALID,86.0538,VALID,0,VALID,26.0401,VALID,348,VALID,0.761719,
2011-12-30, 00:33:04,VALID,1003.18,VALID,0,VALID,86.1758,VALID,0,VALID,25.9992,VALID,341,VALID,0.244531,
2011-12-30, 00:34:04,VALID,1003.15,VALID,0,VALID,86.2674,VALID,0,VALID,26.0012,VALID,341,VALID,0.241406,
2011-12-30, 00:35:04,VALID,1003.15,VALID,0,VALID,86.336,VALID,0,VALID,25.9817,VALID,341,VALID,0.186328,
2011-12-30, 00:36:04,VALID,1003.14,VALID,0,VALID,86.3742,VALID,0,VALID,25.9817,VALID,341,VALID,0.0820313,
2011-12-30, 00:37:04,VALID,1003.17,VALID,0,VALID,86.5039,VALID,0,VALID,25.9622,VALID,341,VALID,0.176172,
2011-12-30, 00:38:04,VALID,1003.16,VALID,0,VALID,86.5878,VALID,0,VALID,25.9427,VALID,341,VALID,0.0664063,
2011-12-30, 00:39:04,VALID,1003.15,VALID,0,VALID,86.8701,VALID,0,VALID,25.9232,VALID,341,VALID,0,
2011-12-30, 00:40:04,VALID,1003.16,VALID,0,VALID,86.8319,VALID,0,VALID,25.8843,VALID,341,VALID,0.123828,
2011-12-30, 00:41:04,VALID,1003.12,VALID,0,VALID,86.9998,VALID,0,VALID,25.8434,VALID,341,VALID,0.00546875,
2011-12-30, 00:42:04,VALID,1003.11,VALID,0,VALID,86.9464,VALID,0,VALID,25.8434,VALID,341,VALID,0.264062,
2011-12-30, 00:43:04,VALID,1003.07,VALID,0,VALID,87.2134,VALID,0,VALID,25.8453,VALID,341,VALID,0.0347656,
2011-12-30, 00:44:04,VALID,1003.07,VALID,0,VALID,87.3202,VALID,0,VALID,25.8259,VALID,342,VALID,0.448047,
2011-12-30, 00:45:04,VALID,1003.06,VALID,0,VALID,87.4193,VALID,0,VALID,25.8064,VALID,342,VALID,0.125,
2011-12-30, 00:46:04,VALID,1003.04,VALID,0,VALID,87.5948,VALID,0,VALID,25.7655,VALID,348,VALID,0.764063,
2011-12-30, 00:47:04,VALID,1003.04,VALID,0,VALID,87.7245,VALID,0,VALID,25.746,VALID,348,VALID,0.773438,
2011-12-30, 00:48:04,VALID,1003.04,VALID,0,VALID,87.8466,VALID,0,VALID,25.748,VALID,349,VALID,0.857031,
2011-12-30, 00:49:04,VALID,1003.04,VALID,0,VALID,87.9381,VALID,0,VALID,25.7285,VALID,347,VALID,0.78125,
2011-12-30, 00:50:04,VALID,1003.03,VALID,0,VALID,87.8542,VALID,0,VALID,25.7265,VALID,355,VALID,0.851172,
2011-12-30, 00:51:04,VALID,1003.05,VALID,0,VALID,87.7855,VALID,0,VALID,25.7265,VALID,352,VALID,0.722266,
2011-12-30, 00:52:04,VALID,1003,VALID,0,VALID,87.8923,VALID,0,VALID,25.748,VALID,351,VALID,0.347656,
2011-12-30, 00:53:04,VALID,1002.98,VALID,0,VALID,87.8084,VALID,0,VALID,25.748,VALID,351,VALID,0.337891,
2011-12-30, 00:54:04,VALID,1003,VALID,0,VALID,87.8618,VALID,0,VALID,25.7265,VALID,351,VALID,0.0613281,
2011-12-30, 00:55:04,VALID,1002.96,VALID,0,VALID,87.8923,VALID,0.0815089,VALID,25.748,VALID,351,VALID,0.00117188,
2011-12-30, 00:56:04,VALID,1002.94,VALID,0,VALID,87.8084,VALID,0,VALID,25.7265,VALID,351,VALID,0.473047,
2011-12-30, 00:57:04,VALID,1002.93,VALID,0,VALID,87.7703,VALID,0,VALID,25.748,VALID,344,VALID,0.33125,
2011-12-30, 00:58:04,VALID,1002.93,VALID,0,VALID,87.7398,VALID,0,VALID,25.7674,VALID,348,VALID,0.780078,
2011-12-30, 00:59:04,VALID,1002.9,VALID,0,VALID,87.694,VALID,0,VALID,25.785,VALID,357,VALID,0.717969,
2011-12-30, 01:00:04,VALID,1002.91,VALID,0,VALID,87.4651,VALID,0,VALID,25.785,VALID,343,VALID,0.830469,
2011-12-30, 01:01:04,VALID,1002.91,VALID,0,VALID,87.4346,VALID,0,VALID,25.8239,VALID,355,VALID,0.523438,
2011-12-30, 01:02:04,VALID,1002.92,VALID,0,VALID,87.343,VALID,0,VALID,25.8434,VALID,348,VALID,0.852734,
2011-12-30, 01:03:04,VALID,1002.89,VALID,0,VALID,87.4499,VALID,0,VALID,25.8434,VALID,354,VALID,0.378125,
2011-12-30, 01:04:04,VALID,1002.89,VALID,0,VALID,87.5033,VALID,0.0815089,VALID,25.8239,VALID,353,VALID,0.507031,
2011-12-30, 01:05:04,VALID,1002.87,VALID,0,VALID,87.5948,VALID,0,VALID,25.8219,VALID,336,VALID,0.978516,
2011-12-30, 01:06:04,VALID,1002.89,VALID,0,VALID,87.4727,VALID,0.0815089,VALID,25.8434,VALID,331,VALID,0.669922,
2011-12-30, 01:07:04,VALID,1002.87,VALID,0,VALID,87.3049,VALID,0,VALID,25.8629,VALID,350,VALID,0.371875,
2011-12-30, 01:08:04,VALID,1002.83,VALID,0,VALID,87.2591,VALID,0,VALID,25.8823,VALID,350,VALID,0.554297,
2011-12-30, 01:09:05,VALID,1002.82,VALID,0,VALID,87.16,VALID,0.0815089,VALID,25.9018,VALID,349,VALID,0.542969,
2011-12-30, 01:10:05,VALID,1002.8,VALID,0,VALID,87.1066,VALID,0.0815089,VALID,25.8998,VALID,353,VALID,0.595703,
2011-12-30, 01:11:05,VALID,1002.79,VALID,0,VALID,87.0684,VALID,0.0815089,VALID,25.9408,VALID,331,VALID,0.145703,
2011-12-30, 01:12:05,VALID,1002.8,VALID,0,VALID,87.0837,VALID,0,VALID,25.9408,VALID,330,VALID,0.224609,
2011-12-30, 01:13:05,VALID,1002.78,VALID,0,VALID,87.1828,VALID,0,VALID,25.9427,VALID,330,VALID,0.274219,
2011-12-30, 01:14:05,VALID,1002.76,VALID,0,VALID,87.16,VALID,0,VALID,25.9213,VALID,331,VALID,0.285156,
2011-12-30, 01:15:05,VALID,1002.78,VALID,0,VALID,87.3125,VALID,0,VALID,25.8804,VALID,332,VALID,0.301172,
2011-12-30, 01:16:05,VALID,1002.77,VALID,0,VALID,87.2591,VALID,0,VALID,25.8823,VALID,335,VALID,0.177344,
2011-12-30, 01:17:05,VALID,1002.74,VALID,0,VALID,87.343,VALID,0,VALID,25.8823,VALID,331,VALID,0.412891,
2011-12-30, 01:18:05,VALID,1002.69,VALID,0,VALID,87.4422,VALID,0,VALID,25.8823,VALID,328,VALID,0,
2011-12-30, 01:19:05,VALID,1002.67,VALID,0,VALID,87.4727,VALID,0,VALID,25.8434,VALID,328,VALID,0.0675781,
2011-12-30, 01:20:05,VALID,1002.67,VALID,0,VALID,87.5567,VALID,0.0815089,VALID,25.8434,VALID,328,VALID,0,
2011-12-30, 01:21:05,VALID,1002.68,VALID,0,VALID,87.6253,VALID,0.0815089,VALID,25.8434,VALID,328,VALID,0,
2011-12-30, 01:22:05,VALID,1002.67,VALID,0,VALID,87.694,VALID,0,VALID,25.8239,VALID,328,VALID,0,
2011-12-30, 01:23:05,VALID,1002.65,VALID,0,VALID,87.7245,VALID,0.0815089,VALID,25.8064,VALID,328,VALID,0.141406,
2011-12-30, 01:24:05,VALID,1002.65,VALID,0,VALID,87.8771,VALID,0,VALID,25.785,VALID,328,VALID,0.222656,
2011-12-30, 01:25:05,VALID,1002.64,VALID,0,VALID,87.9534,VALID,0.0815089,VALID,25.7655,VALID,328,VALID,0.125781,
2011-12-30, 01:26:05,VALID,1002.62,VALID,0,VALID,88.0144,VALID,0,VALID,25.7265,VALID,328,VALID,0.235547,
2011-12-30, 01:27:05,VALID,1002.61,VALID,0,VALID,88.1441,VALID,0.0815089,VALID,25.7265,VALID,328,VALID,0.0382813,
2011-12-30, 01:28:05,VALID,1002.62,VALID,0,VALID,88.2585,VALID,0,VALID,25.6876,VALID,328,VALID,0.148828,
2011-12-30, 01:29:05,VALID,1002.61,VALID,0,VALID,88.4111,VALID,0,VALID,25.6895,VALID,328,VALID,0.0292969,
2011-12-30, 01:30:05,VALID,1002.6,VALID,0,VALID,88.5103,VALID,0,VALID,25.6486,VALID,328,VALID,0,
2011-12-30, 01:31:05,VALID,1002.59,VALID,0,VALID,88.6552,VALID,0,VALID,25.6486,VALID,285,VALID,0.379297,
2011-12-30, 01:32:05,VALID,1002.58,VALID,0,VALID,88.7162,VALID,0,VALID,25.6486,VALID,293,VALID,0.531641,
2011-12-30, 01:33:05,VALID,1002.54,VALID,0,VALID,88.7773,VALID,0,VALID,25.6681,VALID,311,VALID,0.414063,
2011-12-30, 01:34:05,VALID,1002.51,VALID,0,VALID,88.907,VALID,0,VALID,25.6486,VALID,311,VALID,0.0820313,
2011-12-30, 01:35:05,VALID,1002.51,VALID,0,VALID,88.968,VALID,0,VALID,25.6486,VALID,311,VALID,0.0976563,
2011-12-30, 01:36:05,VALID,1002.49,VALID,0,VALID,89.0519,VALID,0.0815089,VALID,25.6077,VALID,311,VALID,0.25625,
2011-12-30, 01:37:05,VALID,1002.47,VALID,0,VALID,89.1358,VALID,0.0815089,VALID,25.6097,VALID,311,VALID,0.0390625,
2011-12-30, 01:38:05,VALID,1002.43,VALID,0,VALID,89.1969,VALID,0.0815089,VALID,25.6077,VALID,315,VALID,0.378125,
2011-12-30, 01:39:05,VALID,1002.4,VALID,0,VALID,89.235,VALID,0,VALID,25.6292,VALID,316,VALID,0.184766,
2011-12-30, 01:40:05,VALID,1002.4,VALID,0,VALID,89.1587,VALID,0.0815089,VALID,25.6292,VALID,321,VALID,0.403516,
2011-12-30, 01:41:05,VALID,1002.36,VALID,0,VALID,89.2045,VALID,0,VALID,25.6486,VALID,336,VALID,0.63125,
2011-12-30, 01:42:05,VALID,1002.35,VALID,0,VALID,89.1969,VALID,0,VALID,25.6486,VALID,338,VALID,0.475391,
2011-12-30, 01:43:05,VALID,1002.36,VALID,0,VALID,89.2045,VALID,0,VALID,25.6486,VALID,334,VALID,0.534375,
2011-12-30, 01:44:05,VALID,1002.35,VALID,0,VALID,89.1892,VALID,0.0815089,VALID,25.6486,VALID,334,VALID,0.0867188,
2011-12-30, 01:45:05,VALID,1002.32,VALID,0,VALID,89.1816,VALID,0,VALID,25.6077,VALID,334,VALID,0,
2011-12-30, 01:46:05,VALID,1002.34,VALID,0,VALID,89.235,VALID,0,VALID,25.6292,VALID,334,VALID,0,
2011-12-30, 01:47:05,VALID,1002.34,VALID,0,VALID,89.3342,VALID,0,VALID,25.6097,VALID,334,VALID,0.354297,
2011-12-30, 01:48:05,VALID,1002.32,VALID,0,VALID,89.2884,VALID,0.0815089,VALID,25.5707,VALID,334,VALID,0.276172,
2011-12-30, 01:49:05,VALID,1002.31,VALID,0,VALID,89.5173,VALID,0,VALID,25.5532,VALID,334,VALID,0.426562,
2011-12-30, 01:50:05,VALID,1002.31,VALID,0,VALID,89.6546,VALID,0,VALID,25.5337,VALID,334,VALID,0.387891,
2011-12-30, 01:51:05,VALID,1002.28,VALID,0,VALID,89.853,VALID,0,VALID,25.4928,VALID,312,VALID,0.488672,
2011-12-30, 01:52:05,VALID,1002.27,VALID,0,VALID,90.0513,VALID,0.0815089,VALID,25.4928,VALID,329,VALID,0.495703,
2011-12-30, 01:53:05,VALID,1002.26,VALID,0,VALID,90.0513,VALID,0,VALID,25.4928,VALID,333,VALID,0.283984,
2011-12-30, 01:54:05,VALID,1002.22,VALID,0,VALID,90.1505,VALID,0,VALID,25.4928,VALID,335,VALID,0.453125,
2011-12-30, 01:55:05,VALID,1002.22,VALID,0,VALID,90.2268,VALID,0,VALID,25.5123,VALID,338,VALID,0.482031,
2011-12-30, 01:56:05,VALID,1002.21,VALID,0,VALID,90.1657,VALID,0.0815089,VALID,25.5318,VALID,339,VALID,0.342969,
2011-12-30, 01:57:05,VALID,1002.21,VALID,0,VALID,90.036,VALID,0,VALID,25.5318,VALID,340,VALID,0.542969,
2011-12-30, 01:58:05,VALID,1002.2,VALID,0,VALID,90.0055,VALID,0,VALID,25.5532,VALID,340,VALID,0.276563,
2011-12-30, 01:59:05,VALID,1002.21,VALID,0,VALID,90.0666,VALID,0.0815089,VALID,25.5318,VALID,341,VALID,0.00820312,
2011-12-30, 02:00:05,VALID,1002.19,VALID,0,VALID,90.0971,VALID,0,VALID,25.5123,VALID,340,VALID,0,
2011-12-30, 02:01:05,VALID,1002.22,VALID,0,VALID,90.2344,VALID,0,VALID,25.5123,VALID,342,VALID,0.419141,
2011-12-30, 02:02:05,VALID,1002.22,VALID,0,VALID,90.2725,VALID,0,VALID,25.5513,VALID,342,VALID,0.330469,
2011-12-30, 02:03:05,VALID,1002.21,VALID,0,VALID,90.2039,VALID,0,VALID,25.5318,VALID,342,VALID,0.408594,
2011-12-30, 02:04:05,VALID,1002.25,VALID,0,VALID,90.2039,VALID,0.0815089,VALID,25.5513,VALID,342,VALID,0.446094,
2011-12-30, 02:05:05,VALID,1002.25,VALID,0,VALID,90.0742,VALID,0,VALID,25.5513,VALID,342,VALID,0.172266,
2011-12-30, 02:06:05,VALID,1002.25,VALID,0,VALID,90.1963,VALID,0,VALID,25.5513,VALID,344,VALID,0.432031,
2011-12-30, 02:07:05,VALID,1002.27,VALID,0,VALID,90.0894,VALID,0,VALID,25.5707,VALID,344,VALID,0.138281,
2011-12-30, 02:08:05,VALID,1002.24,VALID,0,VALID,90.0971,VALID,0,VALID,25.5707,VALID,343,VALID,0.173828,
2011-12-30, 02:09:05,VALID,1002.22,VALID,0,VALID,90.1581,VALID,0,VALID,25.5707,VALID,333,VALID,0.128516,
2011-12-30, 02:10:05,VALID,1002.22,VALID,0,VALID,90.1581,VALID,0,VALID,25.5902,VALID,333,VALID,0.0519531,
2011-12-30, 02:11:05,VALID,1002.22,VALID,0,VALID,90.1581,VALID,0,VALID,25.5688,VALID,333,VALID,0,
2011-12-30, 02:12:05,VALID,1002.21,VALID,0,VALID,90.2878,VALID,0,VALID,25.5902,VALID,283,VALID,0.634766,
2011-12-30, 02:13:05,VALID,1002.2,VALID,0,VALID,90.1963,VALID,0,VALID,25.5883,VALID,276,VALID,0.0347656,
2011-12-30, 02:14:05,VALID,1002.18,VALID,0,VALID,90.0971,VALID,0.0815089,VALID,25.6097,VALID,296,VALID,0.510938,
2011-12-30, 02:15:05,VALID,1002.16,VALID,0,VALID,90.0666,VALID,0,VALID,25.6097,VALID,300,VALID,0,
2011-12-30, 02:16:05,VALID,1002.16,VALID,0,VALID,90.1047,VALID,0,VALID,25.6311,VALID,300,VALID,0,
2011-12-30, 02:17:05,VALID,1002.17,VALID,0,VALID,90.0742,VALID,0.0815089,VALID,25.5883,VALID,310,VALID,0.373047,
2011-12-30, 02:18:05,VALID,1002.17,VALID,0,VALID,90.2344,VALID,0,VALID,25.6116,VALID,331,VALID,0.61875,
2011-12-30, 02:19:05,VALID,1002.16,VALID,0,VALID,90.3336,VALID,0,VALID,25.5902,VALID,344,VALID,0.458984,
2011-12-30, 02:20:05,VALID,1002.16,VALID,0,VALID,90.2725,VALID,0,VALID,25.5902,VALID,344,VALID,0.294141,
2011-12-30, 02:21:05,VALID,1002.13,VALID,0,VALID,90.3793,VALID,0,VALID,25.5707,VALID,346,VALID,0.299609,
2011-12-30, 02:22:05,VALID,1002.09,VALID,0,VALID,90.5472,VALID,0,VALID,25.5707,VALID,346,VALID,0.330859,
2011-12-30, 02:23:05,VALID,1002.1,VALID,0,VALID,90.5777,VALID,0.0815089,VALID,25.6292,VALID,353,VALID,0.86875,
2011-12-30, 02:24:05,VALID,1002.08,VALID,0,VALID,90.3793,VALID,0.0815089,VALID,25.6292,VALID,341,VALID,0.812891,
2011-12-30, 02:25:05,VALID,1002.08,VALID,0,VALID,90.2039,VALID,0,VALID,25.6895,VALID,328,VALID,0.719922,
2011-12-30, 02:26:05,VALID,1002.1,VALID,0,VALID,89.9674,VALID,0,VALID,25.7071,VALID,334,VALID,0.244531,
2011-12-30, 02:27:05,VALID,1002.08,VALID,0,VALID,90.0284,VALID,0,VALID,25.7071,VALID,334,VALID,0.292578,
2011-12-30, 02:28:05,VALID,1002.08,VALID,0,VALID,89.9903,VALID,0,VALID,25.7265,VALID,334,VALID,0.0929687,
2011-12-30, 02:29:05,VALID,1002.12,VALID,0,VALID,89.9826,VALID,0,VALID,25.6876,VALID,334,VALID,0.534766,
2011-12-30, 02:30:05,VALID,1002.12,VALID,0,VALID,90.0742,VALID,0,VALID,25.709,VALID,358,VALID,0.589453,
2011-12-30, 02:31:05,VALID,1002.08,VALID,0,VALID,90.0894,VALID,0,VALID,25.6876,VALID,344,VALID,0.598828,
2011-12-30, 02:32:05,VALID,1002.08,VALID,0,VALID,89.9674,VALID,0,VALID,25.7265,VALID,298,VALID,0.233984,
2011-12-30, 02:33:05,VALID,1002.08,VALID,0,VALID,89.9598,VALID,0,VALID,25.7071,VALID,298,VALID,0,
2011-12-30, 02:34:05,VALID,1002.07,VALID,0,VALID,90.1581,VALID,0.0815089,VALID,25.6856,VALID,298,VALID,0,
2011-12-30, 02:35:05,VALID,1002.09,VALID,0,VALID,90.2954,VALID,0.0815089,VALID,25.7071,VALID,339,VALID,0.6,
2011-12-30, 02:36:05,VALID,1002.07,VALID,0,VALID,90.3107,VALID,0.0815089,VALID,25.7071,VALID,339,VALID,0.269922,
2011-12-30, 02:37:05,VALID,1002.1,VALID,0,VALID,90.3717,VALID,0,VALID,25.7071,VALID,339,VALID,0.472266,
2011-12-30, 02:38:05,VALID,1002.09,VALID,0,VALID,90.3259,VALID,0,VALID,25.7071,VALID,339,VALID,0.163281,
2011-12-30, 02:39:05,VALID,1002.09,VALID,0,VALID,90.3107,VALID,0.0815089,VALID,25.7265,VALID,339,VALID,0.480078,
2011-12-30, 02:40:05,VALID,1002.1,VALID,0,VALID,90.2802,VALID,0,VALID,25.746,VALID,340,VALID,0.580859,
2011-12-30, 02:41:05,VALID,1002.13,VALID,0,VALID,90.1047,VALID,0,VALID,25.785,VALID,341,VALID,0.3125,
2011-12-30, 02:42:05,VALID,1002.12,VALID,0,VALID,89.9598,VALID,0,VALID,25.8239,VALID,341,VALID,0,
2011-12-30, 02:43:05,VALID,1002.09,VALID,0,VALID,89.8835,VALID,0.0815089,VALID,25.8025,VALID,341,VALID,0.0605469,
2011-12-30, 02:44:05,VALID,1002.09,VALID,0,VALID,89.7996,VALID,0,VALID,25.8239,VALID,341,VALID,0.00273437,
2011-12-30, 02:45:05,VALID,1002.1,VALID,0,VALID,89.769,VALID,0,VALID,25.8044,VALID,341,VALID,0.0261719,
2011-12-30, 02:46:05,VALID,1002.08,VALID,0,VALID,89.7461,VALID,0,VALID,25.7635,VALID,341,VALID,0,
2011-12-30, 02:47:05,VALID,1002.08,VALID,0,VALID,89.9521,VALID,0,VALID,25.8064,VALID,295,VALID,0.650391,
2011-12-30, 02:48:05,VALID,1002.08,VALID,0,VALID,89.9521,VALID,0,VALID,25.8044,VALID,292,VALID,0.0574219,
2011-12-30, 02:49:05,VALID,1002.1,VALID,0,VALID,89.853,VALID,0,VALID,25.8044,VALID,292,VALID,0.0582031,
2011-12-30, 02:50:05,VALID,1002.09,VALID,0,VALID,89.7843,VALID,0,VALID,25.8453,VALID,292,VALID,0.0929687,
2011-12-30, 02:51:05,VALID,1002.09,VALID,0,VALID,89.8072,VALID,0,VALID,25.783,VALID,292,VALID,0.278906,
2011-12-30, 02:52:05,VALID,1002.09,VALID,0,VALID,89.8301,VALID,0,VALID,25.783,VALID,340,VALID,0.629297,
2011-12-30, 02:53:05,VALID,1002.11,VALID,0,VALID,89.8835,VALID,0,VALID,25.785,VALID,335,VALID,0.191797,
2011-12-30, 02:54:05,VALID,1002.1,VALID,0,VALID,89.9369,VALID,0,VALID,25.7869,VALID,292,VALID,0.0515625,
2011-12-30, 02:55:05,VALID,1002.07,VALID,0,VALID,90.0208,VALID,0,VALID,25.7869,VALID,292,VALID,0.249609,
2011-12-30, 02:56:05,VALID,1002.06,VALID,0,VALID,90.036,VALID,0.0815089,VALID,25.7674,VALID,292,VALID,0.00117188,
2011-12-30, 02:57:05,VALID,1002.03,VALID,0,VALID,90.1963,VALID,0,VALID,25.746,VALID,290,VALID,0.152734,
2011-12-30, 02:58:05,VALID,1002.04,VALID,0,VALID,90.3488,VALID,0,VALID,25.746,VALID,290,VALID,0.197266,
2011-12-30, 02:59:05,VALID,1002.02,VALID,0,VALID,90.2573,VALID,0,VALID,25.746,VALID,291,VALID,0.419922,
2011-12-30, 03:00:05,VALID,1002.01,VALID,0,VALID,90.1963,VALID,0,VALID,25.7655,VALID,299,VALID,0.659375,
2011-12-30, 03:01:05,VALID,1002.02,VALID,0,VALID,90.1047,VALID,0,VALID,25.7655,VALID,291,VALID,0.262109,
2011-12-30, 03:02:05,VALID,1002.01,VALID,0,VALID,90.12,VALID,0.0815089,VALID,25.7655,VALID,291,VALID,0,
2011-12-30, 03:03:05,VALID,1002.02,VALID,0,VALID,90.1505,VALID,0,VALID,25.7655,VALID,291,VALID,0,
2011-12-30, 03:04:05,VALID,1002.03,VALID,0,VALID,90.1352,VALID,0.0815089,VALID,25.746,VALID,291,VALID,0,
2011-12-30, 03:05:05,VALID,1002.05,VALID,0,VALID,90.2268,VALID,0,VALID,25.7265,VALID,331,VALID,0.55,
2011-12-30, 03:06:05,VALID,1002.05,VALID,0,VALID,90.0818,VALID,0,VALID,25.7071,VALID,343,VALID,0.607813,
2011-12-30, 03:07:05,VALID,1002.08,VALID,0,VALID,90.242,VALID,0,VALID,25.6681,VALID,343,VALID,0.414453,
2011-12-30, 03:08:05,VALID,1002.1,VALID,0,VALID,90.1886,VALID,0.0815089,VALID,25.6097,VALID,343,VALID,0.482031,
2011-12-30, 03:09:05,VALID,1002.12,VALID,0,VALID,90.4633,VALID,0,VALID,25.5727,VALID,343,VALID,0.296484,
2011-12-30, 03:10:05,VALID,1002.11,VALID,0,VALID,90.6235,VALID,0,VALID,25.5123,VALID,343,VALID,0.128125,
2011-12-30, 03:11:05,VALID,1002.09,VALID,0,VALID,90.8447,VALID,0,VALID,25.4928,VALID,343,VALID,0.101953,
2011-12-30, 03:12:05,VALID,1002.08,VALID,0,VALID,90.8218,VALID,0,VALID,25.4539,VALID,343,VALID,0.435156,
2011-12-30, 03:13:05,VALID,1002.03,VALID,0,VALID,91.3177,VALID,0,VALID,25.4149,VALID,342,VALID,0.696875,
2011-12-30, 03:14:05,VALID,1002.06,VALID,0,VALID,91.4932,VALID,0.0815089,VALID,25.4149,VALID,342,VALID,0.304688,
2011-12-30, 03:15:05,VALID,1002.04,VALID,0,VALID,91.5466,VALID,0.0815089,VALID,25.3935,VALID,342,VALID,0.459766,
2011-12-30, 03:16:05,VALID,1002.06,VALID,0,VALID,91.8594,VALID,0,VALID,25.3955,VALID,342,VALID,0.194922,
2011-12-30, 03:17:05,VALID,1002.06,VALID,0,VALID,91.8822,VALID,0,VALID,25.3955,VALID,342,VALID,0.0980469,
2011-12-30, 03:18:05,VALID,1002.05,VALID,0,VALID,91.989,VALID,0,VALID,25.3955,VALID,342,VALID,0,
2011-12-30, 03:19:05,VALID,1002.06,VALID,0,VALID,92.2103,VALID,0.0815089,VALID,25.4149,VALID,331,VALID,0.401953,
2011-12-30, 03:20:05,VALID,1002.08,VALID,0,VALID,92.2942,VALID,0.0815089,VALID,25.4344,VALID,331,VALID,0.0285156,
2011-12-30, 03:21:05,VALID,1002.07,VALID,0,VALID,92.2561,VALID,0,VALID,25.4753,VALID,331,VALID,0.244922,
2011-12-30, 03:22:05,VALID,1002.09,VALID,0,VALID,92.4773,VALID,0,VALID,25.5123,VALID,357,VALID,0.558203,
2011-12-30, 03:23:05,VALID,1002.08,VALID,0,VALID,92.401,VALID,0,VALID,25.5707,VALID,356,VALID,0.579297,
2011-12-30, 03:24:05,VALID,1002.06,VALID,0,VALID,92.1874,VALID,0,VALID,25.6486,VALID,354,VALID,0.223438,
2011-12-30, 03:25:05,VALID,1002.05,VALID,0,VALID,91.9585,VALID,0.0815089,VALID,25.6876,VALID,355,VALID,0.628906,
2011-12-30, 03:26:05,VALID,1002.04,VALID,0,VALID,91.7831,VALID,0,VALID,25.746,VALID,355,VALID,0.75,
2011-12-30, 03:27:05,VALID,1002.05,VALID,0,VALID,91.5084,VALID,0,VALID,25.785,VALID,356,VALID,0.126563,
2011-12-30, 03:28:05,VALID,1002.03,VALID,0,VALID,91.3101,VALID,0.0815089,VALID,25.8453,VALID,356,VALID,0.213672,
2011-12-30, 03:29:05,VALID,1002.01,VALID,0,VALID,91.1575,VALID,0.0815089,VALID,25.8823,VALID,358,VALID,0.702344,
2011-12-30, 03:30:05,VALID,1002.01,VALID,0,VALID,90.8447,VALID,0,VALID,25.9018,VALID,354,VALID,0.0980469,
2011-12-30, 03:31:05,VALID,1001.99,VALID,0,VALID,90.6845,VALID,0.0815089,VALID,25.9622,VALID,298,VALID,0.0519531,
2011-12-30, 03:32:05,VALID,1001.97,VALID,0,VALID,90.5548,VALID,0,VALID,25.9602,VALID,298,VALID,0,
2011-12-30, 03:33:05,VALID,1001.96,VALID,0,VALID,90.4556,VALID,0.0815089,VALID,25.9408,VALID,344,VALID,0.635547,
2011-12-30, 03:34:05,VALID,1001.97,VALID,0,VALID,90.6158,VALID,0,VALID,25.9602,VALID,346,VALID,0.690625,
2011-12-30, 03:35:05,VALID,1001.96,VALID,0,VALID,90.4556,VALID,0.0815089,VALID,25.9797,VALID,346,VALID,0.601172,
2011-12-30, 03:36:05,VALID,1001.93,VALID,0,VALID,90.448,VALID,0,VALID,25.9797,VALID,342,VALID,0.675781,
2011-12-30, 03:37:05,VALID,1001.94,VALID,0,VALID,90.4022,VALID,0,VALID,25.9992,VALID,347,VALID,0.651172,
2011-12-30, 03:38:05,VALID,1001.95,VALID,0,VALID,90.4022,VALID,0.0815089,VALID,26.0187,VALID,347,VALID,0.430859,
2011-12-30, 03:39:05,VALID,1001.93,VALID,0,VALID,90.2573,VALID,0.0815089,VALID,26.0596,VALID,347,VALID,0.398828,
2011-12-30, 03:40:05,VALID,1001.92,VALID,0,VALID,90.12,VALID,0.0815089,VALID,26.0596,VALID,347,VALID,0.572266,
2011-12-30, 03:41:05,VALID,1001.94,VALID,0,VALID,90.0818,VALID,0,VALID,26.0187,VALID,347,VALID,0.444531,
2011-12-30, 03:42:05,VALID,1001.95,VALID,0,VALID,90.2039,VALID,0.0815089,VALID,25.9992,VALID,347,VALID,0.383203,